Regional Weather Roundup
Issued by NWS Sioux Falls, SD

Home | Current Version | Previous Version | Graphics & Text | Print | Product List | Glossary Off
Versions: 1 2 3 4 5 6 7 8 9 10 11 12 13 14 15 16 17 18 19 20 21 22 23 24 25 26 27 28 29 30 31 32 33 34 35 36 37 38 39 40 41 42 43 44 45 46 47 48 49 50

000
ASUS43 KFSD 041210
RWRFSD

WEATHER ROUNDUP FOR SE SOUTH DAKOTA/SW MINNESOTA/NW IOWA
NATIONAL WEATHER SERVICE SIOUX FALLS SD
700 AM CDT FRI SEP 04 2015

NOTE: "FAIR" INDICATES FEW OR NO CLOUDS BELOW 12,000 FEET WITH NO
SIGNIFICANT WEATHER AND OR OBSTRUCTIONS TO VISIBILITY.


SDZ038>040-050-052>070-041300-
SOUTHEAST SOUTH DAKOTA

CITY           SKY/WX    TMP DP  RH WIND       PRES   REMARKS
BROOKINGS      MOCLDY   N/A N/A N/A SE13      29.83R
CHAMBERLAIN    DRIZZLE   71  65  81 NE6       29.70F
6HR MIN TEMP:  69; 6HR MAX TEMP:  78; 6HR PCP:  0.04;

HURON          CLOUDY    73  67  81 S5        29.75R THUNDER
6HR MIN TEMP:  72; 6HR MAX TEMP:  77;

MADISON        FAIR      70  70 100 S14       29.82R
MITCHELL       CLOUDY    74  67  78 SE12      29.75R
6HR MIN TEMP:  73; 6HR MAX TEMP:  77;

SIOUX FALLS    MOCLDY    74  66  76 S12       29.83R
6HR MIN TEMP:  74; 6HR MAX TEMP:  77;

WINNER         FAIR      70  63  78 S8        29.76R
YANKTON        MOCLDY    73  64  73 S14       29.80S
$$

MNZ071-072-080-081-089-090-097-098-041300-
SOUTHWEST MINNESOTA

CITY           SKY/WX    TMP DP  RH WIND       PRES   REMARKS
FAIRMONT       CLEAR     70  45  40 S6        29.90R
JACKSON        CLEAR     72  68  88 S9        29.90R
LUVERNE        MOCLDY    72  66  83 S3        29.86R
MARSHALL       CLEAR     72  64  78 S13       29.84R
6HR MIN TEMP:  72; 6HR MAX TEMP:  73;

MONTEVIDEO     FAIR      72  72 100 S8        29.83S
PIPESTONE      MOCLDY    72  66  83 S9        29.86R
REDWOOD FALLS  CLEAR     71  69  93 SE8       29.85R
TRACY          CLEAR     72  69  90 S13G18    29.84F
WINDOM         CLEAR     72  66  83 SE8       29.88S
WORTHINGTON    CLEAR     70  64  83 S13       29.88R
$$

IAZ001>003-012>014-020>022-031-032-NEZ013-014-SDZ071-041300-
NORTHWEST IOWA

CITY           SKY/WX    TMP DP  RH WIND       PRES   REMARKS
CHEROKEE       PTCLDY    70  69  97 S6        29.90R
DENISON        PTCLDY    72  68  88 S9        29.91R
ESTHERVILLE    CLEAR     68  67  96 S7        29.90R
LE MARS        MOCLDY    73  70  88 S10G17    29.88R
ORANGE CITY    MOCLDY    72  68  88 S9        29.88R
SHELDON        PTCLDY    70  68  94 S12       29.87R
SIOUX CITY     LGT RAIN  72  66  81 SE12      29.87S
6HR MIN TEMP:  72; 6HR MAX TEMP:  76; 6HR PCP: TRACE;

SPENCER        CLEAR     71  67  87 S10       29.90R
6HR MIN TEMP:  71; 6HR MAX TEMP:  74;

STORM LAKE     CLEAR     70  68  94 S9        29.92R
$$

ABBREVIATIONS USED IN REMARKS
   TC - TEMPERATURE IN CELSIUS
  WCI - WIND CHILL INDEX
   HX - HEAT INDEX
  VSB - VISIBILITY




USA.gov is the U.S. government's official web portal to all federal, state and local government web resources and services.